[[{"header":{"parameterUnit":"m.s-1","parameterCategory":1,"la1":30.2991,"la2":30.254,"lo1":-89.0895,"lo2":-89.0444,"dy":0.0017,"dx":0.0017,"nx":28,"ny":28,"refTime":"2025-01-13T09:00:00:Z","depth":0,"parameterNumber":2,"parameterNumberName":"U-component_of_WINDS"},"data":[0,0,0,0,0,0,0,0,0,0,0,0,0,0,0,0,0,0,0,0,0,0,0,0,0,0,0,0,0,0,0,0,0,0,0,0,0,0,0,0,0,0,0,0,0,0,0,0,0,0,0,0,0,0,0,0,0,0,-3.1934,-3.1934,0,-3.1989,-3.199,-3.199,-3.1864,-3.186,-3.1856,-3.1852,-3.1914,-3.1919,-3.1924,0,0,0,0,0,0,0,0,0,0,0,0,0,-3.1722,-3.1727,-3.1934,-3.1934,-3.1935,-3.1989,-3.199,-3.199,-3.1865,-3.186,-3.1855,-3.185,-3.1912,-3.1918,-3.1925,0,0,0,0,0,0,0,0,0,0,0,0,0,-3.18,-3.1728,-3.1933,-3.1879,-3.1874,-3.1989,-3.199,-3.1991,-3.1866,-3.186,-3.1854,-3.1848,-3.191,-3.1918,-3.1926,-3.2098,0,0,-3.1951,-3.1954,0,0,0,0,0,0,0,0,-3.1796,-3.1808,-3.1886,-3.1883,-3.1878,-3.1913,-3.1938,-3.2027,-3.1867,-3.1869,-3.1852,-3.1845,-3.1919,-3.1926,-3.195,-3.21,-3.2103,-3.1951,-3.1956,-3.196,-3.1962,0,0,0,0,0,0,0,-3.179,-3.1805,-3.1956,-3.1887,-3.1882,-3.1852,-3.1857,-3.1954,-3.1928,-3.1869,-3.186,-3.1868,-3.1915,-3.1942,-3.195,-3.2104,-3.1951,-3.1958,-3.1963,-3.1966,-3.2398,-3.2405,0,0,0,0,0,0,-3.1791,-3.1801,-3.1954,-3.1957,-3.1821,-3.1861,-3.1866,-3.1908,-3.1926,-3.1923,-3.1873,-3.1861,-3.1931,-3.1941,-3.1952,-3.2155,-3.196,-3.1967,-3.1972,-3.2392,-3.24,-3.2407,0,0,0,0,0,0,-3.1787,-3.1806,-3.1952,-3.1877,-3.1893,-3.1871,-3.192,-3.1912,-3.1939,-3.1929,-3.1924,-3.1905,-3.1927,-3.1941,-3.2062,-3.2155,-3.1971,-3.1978,-3.2384,-3.2394,-3.2403,-3.2563,0,0,0,0,0,0,-3.1782,-3.1806,-3.187,-3.1879,-3.1897,-3.2061,-3.1925,-3.1918,-3.1953,-3.1939,-3.1958,-3.1955,-3.1923,-3.2051,-3.207,-3.2163,-3.1985,-3.2376,-3.2389,-3.24,-3.2549,-3.2577,-3.2601,0,0,0,0,0,-3.1775,-3.1914,-3.1874,-3.1893,-3.1977,-3.2066,-3.2077,-3.2035,-3.1961,-3.2026,-3.2019,-3.1955,-3.2141,-3.2064,-3.2085,-3.2182,-3.237,-3.2385,-3.2399,-3.2538,-3.2571,-3.26,0,0,0,0,0,0,-3.1919,-3.1914,-3.187,-3.2016,-3.2042,-3.2044,-3.2126,-3.2073,-3.2122,-3.2107,-3.2055,-3.206,-3.2192,-3.2198,-3.2113,-3.2349,-3.2243,-3.2263,-3.2341,-3.2373,-3.2398,-3.2395,-3.1991,0,0,0,0,0,-3.1967,-3.2038,-3.203,-3.216,-3.2175,-3.2148,-3.2185,-3.2151,-3.2177,-3.2188,-3.219,-3.2219,-3.2284,-3.2328,-3.2387,-3.2548,-3.2551,-3.2625,-3.2651,-3.2672,-3.2691,-3.2777,-3.281,-3.2456,-3.2456,-3.2455,0,0,-3.2068,-3.2074,-3.2123,-3.2189,-3.2205,-3.2281,-3.2159,-3.2244,-3.2301,-3.2201,-3.2316,-3.2319,-3.2347,-3.249,-3.2552,-3.2499,-3.2789,-3.2691,-3.2708,-3.2715,-3.2796,-3.2829,-3.2859,-3.2466,-3.2464,-3.2462,0,0,-3.2292,-3.2303,-3.2413,-3.2431,-3.2456,-3.2437,-3.2463,-3.2474,-3.2471,-3.2585,-3.2512,-3.2578,-3.2691,-3.2715,-3.2742,-3.2972,-3.2915,-3.2993,-3.3129,-3.3214,-3.3242,-3.3266,-3.3351,-3.3381,-3.3011,-3.3011,-3.3012,0,-3.2416,-3.2527,-3.2476,-3.2567,-3.2598,-3.2509,-3.262,-3.264,-3.2685,-3.271,-3.2648,-3.2788,-3.28,-3.2947,-3.3003,-3.3027,-3.3057,-3.2992,-3.3241,-3.3266,-3.3288,-3.3368,-3.3399,-3.3021,-3.302,-3.3019,-3.3018,0,-3.2678,-3.2756,-3.2841,-3.2885,-3.2925,-3.3026,-3.2992,-3.3039,-3.3,-3.2988,-3.3106,-3.3117,-3.3177,-3.3209,-3.3173,-3.3351,-3.3317,-3.325,-3.3142,-3.3332,-3.3406,-3.3436,-3.3034,-3.3031,-3.3028,-3.3026,0,0,-3.2998,-3.301,-3.3043,-3.3061,-3.3081,-3.3141,-3.3238,-3.3295,-3.3337,-3.337,-3.3451,-3.3547,-3.3484,-3.3515,-3.348,-3.3554,-3.3738,-3.3477,-3.3477,-3.3527,-3.3937,-3.399,-3.4026,-3.3699,-3.3704,-3.3709,-3.3935,0,-3.3221,-3.3386,-3.3342,-3.3507,-3.3579,-3.3494,-3.3578,-3.36,-3.3591,-3.3651,-3.364,-3.371,-3.3621,-3.3639,-3.3708,-3.3701,-3.382,-3.3684,-3.3776,-3.378,-3.3775,-3.4065,-3.4121,-3.4335,-3.3964,-3.3969,-3.3972,0,-3.3505,-3.3547,-3.3719,-3.3727,-3.3755,-3.3832,-3.388,-3.3938,-3.3962,-3.3949,-3.3983,-3.3933,-3.4029,-3.3918,-3.405,-3.3959,-3.3993,-3.3995,-3.4002,-3.4012,-3.389,-3.4085,-3.4402,-3.4435,-3.4017,-3.4013,-3.401,0,-3.3724,-3.3823,-3.3939,-3.3957,-3.3969,-3.4025,-3.4032,-3.4049,-3.4086,-3.4129,-3.4152,-3.4206,-3.4236,-3.4279,-3.4246,-3.4168,-3.4384,-3.427,-3.4379,-3.438,-3.4432,-3.4429,-3.4761,-3.4449,-3.4449,-3.4448,-3.4447,0,-3.398,-3.4089,-3.4037,-3.4109,-3.4229,-3.4177,-3.4297,-3.4295,-3.4311,-3.4381,-3.431,-3.4378,-3.4328,-3.4392,-3.4365,-3.448,-3.4494,-3.4488,-3.448,-3.4496,-3.4497,-3.4521,-3.4506,-3.4456,-3.4454,-3.4453,-3.4451,0,-3.4247,-3.4216,-3.4337,-3.4337,-3.4339,-3.4428,-3.4429,-3.4495,-3.4479,-3.4569,-3.4587,-3.4563,-3.4634,-3.4604,-3.4679,-3.4661,-3.4809,-3.4781,-3.4802,-3.4795,-3.4907,-3.4898,-3.5268,-3.5314,-3.497,-3.4973,-3.4976,0,-3.4414,-3.4495,-3.4503,-3.4545,-3.4557,-3.4624,-3.4661,-3.4613,-3.4654,-3.4686,-3.475,-3.4814,-3.4863,-3.4981,-3.4972,-3.5029,-3.5003,-3.5128,-3.5011,-3.5025,-3.5008,-3.5004,-3.5013,-3.5153,-3.5157,-3.516,-3.5163,0,-3.4714,-3.4694,-3.4749,-3.4799,-3.4844,-3.4882,-3.4913,-3.4951,-3.4904,-3.4954,-3.5025,-3.5063,-3.5139,-3.5205,-3.5255,-3.5264,-3.5208,-3.5199,-3.5228,-3.5247,-3.5256,-3.5255,-3.4869,-3.5192,-3.5189,-3.5187,-3.5185,-3.5184,-3.4938,-3.5006,-3.5023,-3.5086,-3.5104,-3.5134,-3.5197,-3.5188,-3.5246,-3.5303,-3.527,-3.5354,-3.5375,-3.5436,-3.5452,-3.5518,-3.5468,-3.5509,-3.552,-3.5532,-3.5548,-3.5243,-3.5526,-3.5525,-3.5524,-3.5524,-3.5523,0,-3.5237,-3.5242,-3.5301,-3.5346,-3.5396,-3.5334,-3.5365,-3.5412,-3.5486,-3.5509,-3.5558,-3.564,-3.5703,-3.5697,-3.5754,-3.5808,-3.5784,-3.5825,-3.5823,-3.5826,-3.5587,-3.5558,-3.5844,-3.5844,-3.5844,-3.5844,-3.5844,-3.5844,-3.5398,-3.5511,-3.5494,-3.5615,-3.5619,-3.57,-3.5723,-3.5751,-3.5769,-3.5863,-3.5915,-3.5909,-3.5921,-3.5978,-3.6034,-3.603,-3.6056,-3.6109,-3.6096,-3.5874,-3.5842,-3.5812,-3.5784,-3.6114,-3.6114,-3.6329,-3.6331,-3.6333]},{"header":{"parameterUnit":"m.s-1","parameterCategory":1,"la1":30.2991,"la2":30.254,"lo1":-89.0895,"lo2":-89.0444,"dy":0.0017,"dx":0.0017,"nx":28,"ny":28,"refTime":"2025-01-13T09:00:00:Z","depth":0,"parameterNumber":3,"parameterNumberName":"V-component_of_WINDS"},"data":[0,0,0,0,0,0,0,0,0,0,0,0,0,0,0,0,0,0,0,0,0,0,0,0,0,0,0,0,0,0,0,0,0,0,0,0,0,0,0,0,0,0,0,0,0,0,0,0,0,0,0,0,0,0,0,0,0,0,-4.0726,-4.0726,0,-4.0751,-4.0751,-4.0751,-4.0687,-4.0685,-4.0683,-4.0681,-4.0706,-4.0709,-4.0711,0,0,0,0,0,0,0,0,0,0,0,0,0,-4.0622,-4.0624,-4.0726,-4.0726,-4.0727,-4.0751,-4.0751,-4.0751,-4.0688,-4.0685,-4.0683,-4.068,-4.0705,-4.0708,-4.0711,0,0,0,0,0,0,0,0,0,0,0,0,0,-4.0659,-4.0625,-4.0726,-4.0698,-4.0695,-4.075,-4.0751,-4.0751,-4.0688,-4.0685,-4.0682,-4.0679,-4.0704,-4.0708,-4.0712,-4.0795,0,0,-4.0723,-4.0725,0,0,0,0,0,0,0,0,-4.0657,-4.0663,-4.0702,-4.07,-4.0697,-4.0713,-4.0723,-4.0766,-4.0689,-4.0691,-4.0681,-4.0678,-4.0711,-4.0714,-4.0725,-4.0796,-4.0797,-4.0724,-4.0726,-4.0728,-4.0729,0,0,0,0,0,0,0,-4.0655,-4.0661,-4.0736,-4.0702,-4.07,-4.0683,-4.0685,-4.0731,-4.0717,-4.0691,-4.0686,-4.069,-4.0709,-4.0722,-4.0725,-4.0798,-4.0724,-4.0727,-4.0729,-4.0731,-4.0936,-4.0939,0,0,0,0,0,0,-4.0656,-4.066,-4.0735,-4.0736,-4.0669,-4.0688,-4.069,-4.0711,-4.0717,-4.0715,-4.0692,-4.0687,-4.0717,-4.0721,-4.0726,-4.0822,-4.0728,-4.0731,-4.0733,-4.0933,-4.0937,-4.094,0,0,0,0,0,0,-4.0654,-4.0663,-4.0734,-4.0697,-4.0705,-4.0693,-4.0717,-4.0713,-4.0725,-4.0718,-4.0715,-4.0708,-4.0714,-4.072,-4.0778,-4.0822,-4.0733,-4.0736,-4.0929,-4.0934,-4.0939,-4.1017,0,0,0,0,0,0,-4.0651,-4.0663,-4.0695,-4.0698,-4.0707,-4.0786,-4.072,-4.0716,-4.0732,-4.0725,-4.0732,-4.073,-4.0713,-4.0773,-4.0782,-4.0826,-4.0739,-4.0925,-4.0931,-4.0937,-4.101,-4.1023,-4.1035,0,0,0,0,0,-4.0648,-4.0716,-4.0697,-4.0706,-4.0747,-4.0789,-4.0794,-4.0773,-4.0736,-4.0768,-4.0762,-4.073,-4.0816,-4.0779,-4.0789,-4.0835,-4.0922,-4.093,-4.0937,-4.1004,-4.1021,-4.1035,0,0,0,0,0,0,-4.0719,-4.0716,-4.0695,-4.0767,-4.0779,-4.0778,-4.0818,-4.0791,-4.0814,-4.0806,-4.0778,-4.078,-4.0843,-4.0844,-4.0803,-4.0914,-4.0863,-4.0872,-4.0911,-4.0927,-4.0939,-4.0937,-4.0742,0,0,0,0,0,-4.0743,-4.0778,-4.0774,-4.0837,-4.0844,-4.083,-4.0848,-4.083,-4.0841,-4.0846,-4.0845,-4.0857,-4.0886,-4.0907,-4.0934,-4.101,-4.101,-4.1046,-4.1059,-4.1069,-4.1077,-4.1116,-4.1132,-4.0964,-4.0964,-4.0964,0,0,-4.0794,-4.0796,-4.082,-4.0852,-4.0859,-4.0895,-4.0835,-4.0876,-4.0902,-4.0852,-4.0906,-4.0906,-4.0917,-4.0984,-4.1013,-4.0987,-4.1123,-4.1078,-4.1086,-4.1089,-4.1125,-4.1141,-4.1155,-4.0969,-4.0968,-4.0967,0,0,-4.0903,-4.0909,-4.0962,-4.097,-4.0982,-4.0971,-4.0984,-4.0988,-4.0985,-4.1039,-4.1002,-4.1032,-4.1084,-4.1093,-4.1104,-4.1215,-4.1185,-4.1225,-4.129,-4.1328,-4.1341,-4.1353,-4.1391,-4.1405,-4.1233,-4.1234,-4.1234,0,-4.0964,-4.1017,-4.0993,-4.1036,-4.105,-4.1006,-4.1059,-4.1068,-4.1088,-4.1098,-4.1069,-4.1132,-4.1136,-4.1204,-4.1231,-4.1242,-4.1254,-4.1224,-4.1341,-4.1353,-4.1363,-4.1399,-4.1414,-4.1238,-4.1238,-4.1237,-4.1237,0,-4.1091,-4.1128,-4.1169,-4.1189,-4.1208,-4.1255,-4.1237,-4.1259,-4.124,-4.1232,-4.1286,-4.129,-4.1316,-4.1331,-4.1313,-4.1395,-4.1379,-4.1346,-4.1293,-4.1384,-4.1417,-4.1431,-4.1245,-4.1243,-4.1242,-4.1241,0,0,-4.1247,-4.1251,-4.1266,-4.1274,-4.1282,-4.131,-4.1355,-4.138,-4.1399,-4.1414,-4.145,-4.1494,-4.1463,-4.1476,-4.1458,-4.1492,-4.1577,-4.1454,-4.1454,-4.1476,-4.1667,-4.1691,-4.1708,-4.1558,-4.156,-4.1562,-4.1666,0,-4.1354,-4.1431,-4.141,-4.1487,-4.152,-4.1478,-4.1516,-4.1526,-4.152,-4.1546,-4.1539,-4.157,-4.1528,-4.1535,-4.1567,-4.1561,-4.1615,-4.1553,-4.159,-4.1592,-4.1588,-4.1725,-4.1751,-4.1848,-4.1679,-4.1681,-4.1682,0,-4.149,-4.1508,-4.1589,-4.159,-4.1603,-4.1638,-4.1658,-4.1685,-4.1693,-4.1686,-4.17,-4.1675,-4.1718,-4.1666,-4.1724,-4.1682,-4.1696,-4.1695,-4.1699,-4.1701,-4.1642,-4.173,-4.1879,-4.1893,-4.1703,-4.1701,-4.17,0,-4.1594,-4.1639,-4.1692,-4.17,-4.1703,-4.1729,-4.1731,-4.1737,-4.1753,-4.1771,-4.178,-4.1803,-4.1815,-4.1833,-4.1814,-4.1778,-4.1875,-4.1821,-4.187,-4.187,-4.1891,-4.189,-4.2044,-4.1902,-4.1902,-4.1902,-4.1902,0,-4.1715,-4.1765,-4.1739,-4.1772,-4.1826,-4.1801,-4.1855,-4.1853,-4.1858,-4.1889,-4.1854,-4.1884,-4.1857,-4.1884,-4.187,-4.1919,-4.1926,-4.1921,-4.1916,-4.1923,-4.1924,-4.1931,-4.1924,-4.1906,-4.1905,-4.1904,-4.1904,0,-4.184,-4.1825,-4.188,-4.1878,-4.1878,-4.1918,-4.1916,-4.1946,-4.1937,-4.1976,-4.1984,-4.197,-4.1999,-4.1982,-4.2013,-4.2003,-4.2067,-4.2054,-4.2064,-4.206,-4.2109,-4.2104,-4.2272,-4.2292,-4.2139,-4.2141,-4.2142,0,-4.1918,-4.1956,-4.1957,-4.1975,-4.198,-4.2009,-4.2025,-4.2001,-4.2018,-4.203,-4.2058,-4.2084,-4.2104,-4.2154,-4.2146,-4.2169,-4.2155,-4.2212,-4.2158,-4.2164,-4.2154,-4.2152,-4.2155,-4.2223,-4.2225,-4.2226,-4.2228,0,-4.2058,-4.2048,-4.2072,-4.2093,-4.2112,-4.2127,-4.214,-4.2156,-4.2132,-4.2153,-4.2183,-4.2198,-4.2229,-4.2256,-4.2275,-4.2276,-4.2248,-4.2245,-4.2257,-4.2264,-4.2268,-4.2265,-4.2093,-4.2241,-4.224,-4.2239,-4.2238,-4.2237,-4.2161,-4.2192,-4.2197,-4.2224,-4.223,-4.2242,-4.2269,-4.2263,-4.2287,-4.231,-4.2294,-4.2329,-4.2335,-4.2358,-4.2363,-4.2389,-4.2366,-4.2384,-4.2389,-4.2393,-4.2399,-4.2265,-4.2393,-4.2393,-4.2392,-4.2392,-4.2392,0,-4.2297,-4.2298,-4.2323,-4.2341,-4.2362,-4.2333,-4.2345,-4.2364,-4.2395,-4.2403,-4.2423,-4.2456,-4.2481,-4.2475,-4.2497,-4.252,-4.2507,-4.2526,-4.2524,-4.2524,-4.2419,-4.2406,-4.2536,-4.2536,-4.2536,-4.2536,-4.2536,-4.2536,-4.2371,-4.242,-4.2411,-4.2463,-4.2463,-4.2496,-4.2505,-4.2516,-4.2521,-4.256,-4.2581,-4.2576,-4.2578,-4.26,-4.2621,-4.2619,-4.2628,-4.2652,-4.2644,-4.2546,-4.2532,-4.2518,-4.2506,-4.2654,-4.2655,-4.2747,-4.2748,-4.2749]}]]